Regional Weather Roundup
Issued by NWS

Home | Current Version | Previous Version | Text Only | Print | Product List | Glossary Off
Versions: 1 2 3 4 5 6 7 8 9 10 11 12 13 14 15 16 17 18 19 20 21 22 23 24 25 26 27 28 29 30 31 32 33 34 35 36 37 38 39 40 41 42 43 44 45 46 47 48 49 50

000
ASUS44 KMEG 050610
RWRTN
TENNESSEE HOURLY STATE WEATHER ROUNDUP
NATIONAL WEATHER SERVICE MEMPHIS TN
100 AM CDT WED AUG 05 2015

TNZ002-004-019-021-049-052-054-088>092-050700-
WEST TENNESSEE

CITY           SKY/WX    TMP DP  RH WIND       PRES   REMARKS
MEMPHIS INTL   CLOUDY    87  69  54 SE5       29.98F HX  91
NWS MEMPHIS      N/A     80 N/A N/A MISG        N/A
JACKSON        CLOUDY    79  74  84 CALM      29.99F
DYERSBURG        N/A    N/A N/A N/A MISG        N/A
UNION CITY     CLEAR     79  77  94 CALM      29.98F
PARIS          CLEAR     75  72  88 E7        30.01F
LEXINGTON      CLEAR     75  75 100 CALM      29.99F
$$

TNZ008-025-027-028-033-062-065-066-050700-
NORTH MIDDLE TENNESSEE

CITY           SKY/WX    TMP DP  RH WIND       PRES   REMARKS
NASHVILLE      MOCLDY    80  71  74 CALM      30.02S
CLARKSVILLE    MOCLDY    73  68  84 CALM      30.01F
SMYRNA         MOCLDY    77  73  87 CALM      30.02F
COOKEVILLE     CLEAR     73  72  94 CALM      30.03F
CROSSVILLE     PTCLDY    72  67  84 E5        30.10F
$$

TNZ061-075-076-078-094-096-097-050700-
SOUTH MIDDLE TENNESSEE

CITY           SKY/WX    TMP DP  RH WIND       PRES   REMARKS
FAYETTEVILLE     N/A     73  68  83 CALM      30.04S
TULLAHOMA      CLEAR     73  70  88 CALM      30.05F
WINCHESTER     CLEAR     73  70  88 CALM      30.04S
MCMINNVILLE    CLEAR     73  73 100 CALM      30.04F
COLUMBIA       CLEAR     77  77 100 CALM      30.00F
SHELBYVILLE    CLEAR     75  73  94 SE3       30.03F
$$

TNZ017-018-042-046-047-050700-
NORTHEAST TENNESSEE

CITY           SKY/WX    TMP DP  RH WIND       PRES   REMARKS
TRI CITIES     FOG       67  66  97 CALM      30.10F VSB 1/4
ELIZABETHTON   CLEAR     63  63 100 CALM      30.11F
$$

TNZ012-013-036-069-073-074-050700-
CENTRAL EAST TENNESSEE

CITY           SKY/WX    TMP DP  RH WIND       PRES   REMARKS
KNOXVILLE      MOCLDY    74  65  73 NE8       30.05F
OAK RIDGE      CLEAR     77  68  73 E3        30.06F
GATLINBURG     PTCLDY    72  64  78 CALM      30.06F
MORRISTOWN     CLEAR     70  64  83 CALM      30.08F
$$

TNZ083-085-099-050700-
SOUTHEAST TENNESSEE

CITY           SKY/WX    TMP DP  RH WIND       PRES   REMARKS
CHATTANOOGA    PTCLDY    80  72  76 CALM      30.02F
$$

SKY/WX REPORTED AS FAIR MEANS FEW OR NO CLOUDS BELOW
12 THOUSAND FEET.




USA.gov is the U.S. government's official web portal to all federal, state and local government web resources and services.